This is the latest recevied weather packets stored in our database for station/object WD4ITN. If no packets are shown the sender has not sent any weather packets the latest 10 day(s).
| Time | Temp. | Humidity | Pressure | Rain* | Wind** | Luminosity | Snow |
|---|---|---|---|---|---|---|---|
| 1777873406 | 6.67° C | 67% | 1014.1 hPa | 0 mm | - | - | - |
| 1777873110 | 6.67° C | 66% | 1014 hPa | 0 mm | - | - | - |
| 1777872815 | 7.22° C | 65% | 1014.1 hPa | 0 mm | - | - | - |
| 1777872509 | 6.67° C | 62% | 1014.2 hPa | 0 mm | - | - | - |
| 1777872207 | 7.22° C | 66% | 1014.2 hPa | 0 mm | - | - | - |
| 1777871902 | 7.22° C | 66% | 1014.3 hPa | 0 mm | - | - | - |
| 1777871605 | 7.22° C | 65% | 1014.4 hPa | 0 mm | - | - | - |
| 1777871302 | 7.22° C | 63% | 1014.2 hPa | 0 mm | - | - | - |
| 1777871019 | 7.22° C | 63% | 1014.2 hPa | 0 mm | - | - | - |
| 1777870708 | 7.22° C | 63% | 1013.3 hPa | 0 mm | - | - | - |
| 1777870406 | 7.78° C | 62% | 1013.2 hPa | 0 mm | - | - | - |
| 1777870096 | 7.78° C | 59% | 1013.3 hPa | 0 mm | - | - | - |
| 1777869800 | 7.78° C | 57% | 1013.3 hPa | 0 mm | - | - | - |
| 1777869498 | 7.78° C | 58% | 1013.4 hPa | 0 mm | - | - | - |
| 1777869217 | 7.78° C | 60% | 1013.4 hPa | 0 mm | - | - | - |
| 1777868906 | 7.78° C | 59% | 1013.3 hPa | 0 mm | - | - | - |
| 1777868604 | 7.78° C | 59% | 1013.3 hPa | 0 mm | - | - | - |
| 1777868323 | 7.22° C | 59% | 1013.3 hPa | 0 mm | - | - | - |
| 1777867996 | 7.78° C | 61% | 1013.3 hPa | 0 mm | - | - | - |
| 1777867695 | 7.78° C | 58% | 1013.4 hPa | 0 mm | - | - | - |
| 1777867415 | 7.78° C | 58% | 1013.4 hPa | 0 mm | - | - | - |
| 1777867106 | 7.22° C | 59% | 1013.4 hPa | 0 mm | - | - | - |
| 1777866804 | 7.22° C | 59% | 1013.3 hPa | 0 mm | - | - | - |
| 1777866496 | 7.78° C | 60% | 1013.5 hPa | 0 mm | - | - | - |
| 1777866200 | 7.78° C | 60% | 1013.4 hPa | 0 mm | - | - | - |
* Rain since midnight (hover to see other rain measurements)
** Current wind speed in m/s (hover to see current wind gust speed)